Location: Allos
(44.2333°N, 6.6333°E)
Time: 14:49:35
(UTC+00:00)

PSLV R/B - Visible Passes

Search period start: 20 April 2021 00:00
Search period end: 30 April 2021 00:00
Orbit: 567 x 598 km, 98.2° (Epoch: 19 April)

Date Brightness Start Highest point End Pass type
(mag) Time Alt. Az. Time Alt. Az. Time Alt. Az.
20 Apr 7.6 20:03:00 10° NW 20:04:18 11° WNW 20:05:37 10° WNW visible
24 Apr 7.9 04:01:55 10° ENE 04:02:38 10° ENE 04:03:20 10° NE visible
26 Apr 5.3 18:59:53 10° N 19:03:53 46° WNW 19:07:53 10° SW visible
27 Apr 5.6 19:05:40 10° N 19:09:35 40° WNW 19:13:30 10° SW visible
28 Apr 5.9 19:11:28 10° N 19:15:17 35° WNW 19:19:06 10° SW visible
29 Apr 6.2 19:17:16 10° N 19:20:57 31° WNW 19:24:40 10° SW visible
